Date String (YYYY-MM-DD hh:mm:ss) UTC,Instrument flags,absolute air pressure of the measurement (hPa),sample flow rate (lpm),inlet stack bypass flow (lpm),air temperature of the measurement (°C),ambient temperature measured by the external sensor (°C),aerosol sample conditioner tube jacket temperature (°C),OPC LED temperature (°C),internal box temperature (°C),relative humidity of the measurement (%),span deviation,mass concentration of particles derived from Lorenz-Mie calculation of OPC scattering (μg/m³),mass concentration of particles derived from Lorenz-Mie calculation of OPC scattering (μg/m³),mass concentration of particles derived from Lorenz-Mie calculation of OPC scattering (μg/m³)
DateTimeUTC,F1_M11,P_M11,Q1_M11,Q2_M11,T1_M11,T2_M11,T3_M11,T4_M11,T5_M11,U1_M11,ZSPAN_M11,X2_M11,X0_M11,X1_M11
2024-01-19 07:00:00,SystemResetWarning,0837.0,4.99,000.00,019.1,019.0,000.0,027.2,020.5,9.1,0000.0,0003.44,0010.94,0002.68
2024-01-19 07:01:00,SystemResetWarning,0836.9,4.99,000.00,019.0,018.8,000.0,027.2,020.0,9.1,0000.0,0003.49,0011.10,0002.73
2024-01-19 07:02:00,SystemResetWarning,0836.8,5.01,000.00,018.9,018.5,000.0,027.3,020.0,9.1,0000.0,0003.56,0011.59,0002.78
2024-01-19 07:03:00,SystemResetWarning,0836.8,5.00,000.00,018.9,018.2,000.0,027.3,020.0,9.1,0000.0,0003.60,0011.47,0002.85
2024-01-19 07:04:00,SystemResetWarning,0836.8,5.00,000.00,018.9,018.0,000.0,027.3,020.0,9.1,0000.0,0003.63,0011.28,0002.93
2024-01-19 07:05:00,SystemResetWarning,0836.8,5.00,000.00,018.9,017.8,000.0,027.3,020.0,9.1,0000.0,0003.68,0011.33,0002.99
2024-01-19 07:06:00,SystemResetWarning,0836.8,4.99,000.00,018.8,017.6,000.0,027.3,020.0,9.1,0000.0,0003.75,0011.69,0003.06
2024-01-19 07:07:00,SystemResetWarning,0836.8,5.00,000.00,018.8,017.5,000.0,027.3,020.0,9.1,0000.0,0003.84,0011.24,0003.11
2024-01-19 07:08:00,SystemResetWarning,0836.7,5.01,000.00,018.8,017.5,000.0,027.3,020.1,9.1,0000.0,0003.86,0010.12,0003.14
2024-01-19 07:09:00,SystemResetWarning,0836.6,5.01,000.00,018.9,018.1,000.0,027.2,020.5,9.1,0000.0,0003.89,0009.91,0003.17
2024-01-19 07:10:00,SystemResetWarning,0836.6,5.00,000.00,019.0,018.9,000.0,027.2,020.8,9.1,0000.0,0003.89,0009.73,0003.19
2024-01-19 07:11:00,SystemResetWarning,0836.6,5.00,000.00,019.0,018.9,000.0,027.2,020.3,9.1,0000.0,0003.88,0008.87,0003.21
2024-01-19 07:12:00,SystemResetWarning,0836.6,4.98,000.00,019.0,018.6,000.0,027.2,020.0,9.1,0000.0,0003.85,0008.73,0003.22
2024-01-19 07:13:00,SystemResetWarning,0836.6,5.01,000.00,018.9,018.3,000.0,027.3,020.0,9.1,0000.0,0003.85,0008.26,0003.25
2024-01-19 07:14:00,SystemResetWarning,0836.6,5.01,000.00,018.9,018.1,000.0,027.3,020.0,9.1,0000.0,0003.83,0008.28,0003.25
2024-01-19 07:15:00,SystemResetWarning,0836.6,5.00,000.00,018.9,017.9,000.0,027.3,020.0,9.2,0000.0,0003.82,0008.30,0003.26
2024-01-19 07:16:00,SystemResetWarning,0836.6,5.00,000.00,018.9,017.8,000.0,027.3,020.0,9.2,0000.0,0003.81,0008.28,0003.27
2024-01-19 07:17:00,SystemResetWarning,0836.6,5.00,000.00,018.8,017.7,000.0,027.3,020.0,9.1,0000.0,0003.84,0008.81,0003.29
2024-01-19 07:18:00,SystemResetWarning,0836.6,4.99,000.00,018.8,017.5,000.0,027.3,020.0,9.1,0000.0,0003.81,0008.43,0003.30
2024-01-19 07:19:00,SystemResetWarning,0836.6,5.00,000.00,018.8,017.4,000.0,027.3,020.0,9.1,0000.0,0003.83,0008.54,0003.30
2024-01-19 07:20:00,SystemResetWarning,0836.6,5.02,000.00,018.9,017.9,000.0,027.2,020.4,9.1,0000.0,0003.83,0008.86,0003.30
2024-01-19 07:21:00,SystemResetWarning,0836.6,5.00,000.00,019.0,018.7,000.0,027.2,020.8,9.1,0000.0,0003.86,0008.87,0003.30
2024-01-19 07:22:00,SystemResetWarning,0836.5,4.99,000.00,019.0,018.9,000.0,027.2,020.4,9.1,0000.0,0003.90,0008.91,0003.31
2024-01-19 07:23:00,SystemResetWarning,0836.6,5.00,000.00,019.0,018.6,000.0,027.2,020.0,9.1,0000.0,0003.97,0008.96,0003.32
2024-01-19 07:24:00,SystemResetWarning,0836.6,5.02,000.00,018.9,018.4,000.0,027.2,020.0,9.2,0000.0,0004.01,0009.42,0003.34
2024-01-19 07:25:00,SystemResetWarning,0836.6,5.01,000.00,018.9,018.1,000.0,027.3,020.0,9.2,0000.0,0004.04,0009.97,0003.36
2024-01-19 07:26:00,SystemResetWarning,0836.6,4.99,000.00,018.9,017.9,000.0,027.3,020.0,9.3,0000.0,0004.05,0009.93,0003.39
2024-01-19 07:27:00,SystemResetWarning,0836.6,4.99,000.00,018.9,017.7,000.0,027.3,020.0,9.3,0000.0,0004.07,0009.96,0003.40
2024-01-19 07:28:00,SystemResetWarning,0836.7,5.00,000.00,018.8,017.6,000.0,027.3,020.0,9.3,0000.0,0004.07,0009.56,0003.41
2024-01-19 07:29:00,SystemResetWarning,0836.7,5.01,000.00,018.8,017.5,000.0,027.3,020.0,9.3,0000.0,0004.10,0009.66,0003.43
2024-01-19 07:30:00,SystemResetWarning,0836.7,5.01,000.00,018.8,017.5,000.0,027.3,020.1,9.3,0000.0,0004.11,0010.24,0003.45
2024-01-19 07:31:00,SystemResetWarning,0836.6,5.00,000.00,018.9,018.2,000.0,027.2,020.6,9.2,0000.0,0004.14,0010.09,0003.48
2024-01-19 07:32:00,SystemResetWarning,0836.7,5.00,000.00,019.0,019.0,000.0,027.2,020.7,9.2,0000.0,0004.22,0010.49,0003.52
2024-01-19 07:33:00,SystemResetWarning,0836.6,5.00,000.00,019.0,018.8,000.0,027.2,020.1,9.2,0000.0,0004.24,0010.43,0003.55
2024-01-19 07:34:00,SystemResetWarning,0836.7,4.99,000.00,018.9,018.5,000.0,027.2,020.0,9.2,0000.0,0004.26,0010.37,0003.59
2024-01-19 07:35:00,SystemResetWarning,0836.7,5.00,000.00,018.9,018.2,000.0,027.3,020.0,9.2,0000.0,0004.27,0010.40,0003.63
2024-01-19 07:36:00,SystemResetWarning,0836.6,5.00,000.00,018.9,017.9,000.0,027.3,020.0,9.2,0000.0,0004.32,0009.77,0003.68
2024-01-19 07:37:00,SystemResetWarning,0836.6,5.00,000.00,018.9,017.7,000.0,027.3,020.0,9.2,0000.0,0004.38,0010.10,0003.73
2024-01-19 07:38:00,SystemResetWarning,0836.6,4.99,000.00,018.8,017.5,000.0,027.3,020.0,9.2,0000.0,0004.45,0010.51,0003.79
2024-01-19 07:39:00,SystemResetWarning,0836.6,5.00,000.00,018.8,017.4,000.0,027.3,020.0,9.2,0000.0,0004.51,0010.63,0003.84
2024-01-19 07:40:00,SystemResetWarning,0836.6,5.01,000.00,018.8,017.3,000.0,027.3,020.1,9.2,0000.0,0004.57,0010.54,0003.90
2024-01-19 07:41:00,SystemResetWarning,0836.6,5.00,000.00,018.9,018.0,000.0,027.2,020.4,9.2,0000.0,0004.61,0010.09,0003.96
2024-01-19 07:42:00,SystemResetWarning,0836.6,5.00,000.00,019.0,018.8,000.0,027.2,020.7,9.2,0000.0,0004.69,0009.87,0004.02
2024-01-19 07:43:00,SystemResetWarning,0836.5,4.99,000.00,019.0,018.7,000.0,027.2,020.1,9.1,0000.0,0004.74,0009.37,0004.09
2024-01-19 07:44:00,SystemResetWarning,0836.5,4.99,000.00,018.9,018.4,000.0,027.2,020.0,9.1,0000.0,0004.78,0009.35,0004.15
2024-01-19 07:45:00,SystemResetWarning,0836.4,5.00,000.00,018.9,018.1,000.0,027.3,020.0,9.1,0000.0,0004.84,0009.93,0004.19
2024-01-19 07:46:00,SystemResetWarning,0836.5,5.00,000.00,018.8,017.9,000.0,027.3,020.0,9.1,0000.0,0004.87,0010.29,0004.20
2024-01-19 07:47:00,SystemResetWarning,0836.6,5.00,000.00,018.8,017.7,000.0,027.3,020.0,9.1,0000.0,0004.84,0010.84,0004.18
2024-01-19 07:48:00,SystemResetWarning,0836.6,5.01,000.00,018.8,017.5,000.0,027.3,020.0,9.1,0000.0,0004.79,0010.75,0004.13
2024-01-19 07:49:00,SystemResetWarning,0836.6,5.01,000.00,018.8,017.4,000.0,027.3,020.0,9.1,0000.0,0004.72,0010.16,0004.07
2024-01-19 07:50:00,SystemResetWarning,0836.5,5.00,000.00,018.8,017.6,000.0,027.2,020.2,9.2,0000.0,0004.65,0010.67,0004.01
2024-01-19 07:51:00,SystemResetWarning,0836.6,5.00,000.00,018.9,018.5,000.0,027.2,020.6,9.2,0000.0,0004.61,0010.71,0003.97
2024-01-19 07:52:00,SystemResetWarning,0836.7,5.00,000.00,019.0,019.0,000.0,027.2,020.6,9.1,0000.0,0004.56,0010.59,0003.91
2024-01-19 07:53:00,SystemResetWarning,0836.6,4.98,000.00,018.9,018.7,000.0,027.2,020.0,9.1,0000.0,0004.46,0010.40,0003.85
2024-01-19 07:54:00,SystemResetWarning,0836.5,5.01,000.00,018.9,018.4,000.0,027.2,020.0,9.1,0000.0,0004.38,0010.27,0003.78
2024-01-19 07:55:00,SystemResetWarning,0836.6,5.00,000.00,018.9,018.2,000.0,027.3,020.0,9.2,0000.0,0004.32,0010.19,0003.71
2024-01-19 07:56:00,SystemResetWarning,0836.7,5.00,000.00,018.9,018.0,000.0,027.3,020.0,9.2,0000.0,0004.27,0010.21,0003.65
2024-01-19 07:57:00,SystemResetWarning,0836.6,5.01,000.00,018.8,017.8,000.0,027.3,020.0,9.3,0000.0,0004.21,0009.65,0003.62
2024-01-19 07:58:00,SystemResetWarning,0836.6,5.00,000.00,018.8,017.6,000.0,027.3,020.0,9.3,0000.0,0004.23,0008.86,0003.64
2024-01-19 07:59:00,SystemResetWarning,0836.6,5.00,000.00,018.8,017.5,000.0,027.3,020.0,9.3,0000.0,0004.28,0008.71,0003.67
